Paris / Charles De Gaulle, France

9:18 PM CEST on April 25, 2017 (GMT +0200)
Charles de Gaulle

Weather History for LFPG - April, 2013

Change the Weather History Date:

Tuesday, April 2, 2013

  Actual Average Record
Temperature  
Mean Temperature 39 °F -  
Max Temperature 48 °F 58 °F 75 °F (2001)
Min Temperature 30 °F 42 °F 30 °F (2013)
Degree Days  
Heating Degree Days 26    
Moisture  
Dew Point 22 °F    
Average Humidity 51    
Maximum Humidity 75    
Minimum Humidity 34    
Precipitation  
Precipitation 0.00 in - - ()
Sea Level Pressure  
Sea Level Pressure 29.74 in    
Wind  
Wind Speed 11 mph ()    
Max Wind Speed 17 mph    
Max Gust Speed 30 mph    
Averages and records for this station are not official NWS values.
T = Trace of Precipitation, MM = Missing Value Source: Averaged Metar Reports

Daily Weather History Graph

Daily Weather History Graph

Search for Another Location

Airport or City:

Trip Planner

Search our weather history database for the weather conditions in past years. The results will help you decide how hot, cold, wet, or windy it might be!

Date:

Astronomy

Apr. 02, 2013 Rise Set
Actual Time 7:25 AM CEST 8:22 PM CEST
Civil Twilight 6:53 AM CEST 8:54 PM CEST
Nautical Twilight 6:14 AM CEST 9:33 PM CEST
Astronomical Twilight 5:33 AM CEST 10:14 PM CEST
Moon 2:35 AM CEST (4/2) 11:37 AM CEST (4/2)
Length of Visible Light 14h 01m
Length of Day
12h 57m
Waning Gibbous, 59% of the Moon is Illuminated
Apr 2
Waning Gibbous
Apr 3
Last Quarter
Apr 10
New
Apr 18
First Quarter
Apr 25
Full

Hourly Weather History & Observations

Time (CEST) Temp. Windchill Dew Point Humidity Pressure Visibility Wind Dir Wind Speed Gust Speed Precip Events Conditions
12:00 AM 37.4 °F 29.3 °F 23.0 °F 56% 29.68 in - ENE 12.7 mph - N/A   Clear
12:30 AM 37.4 °F 30.3 °F 24.8 °F 60% 29.68 in - NE 10.4 mph - N/A   Clear
1:00 AM 35.6 °F 28.0 °F 23.0 °F 60% 29.68 in - NE 10.4 mph - N/A   Clear
1:30 AM 35.6 °F 27.5 °F 23.0 °F 60% 29.68 in - ENE 11.5 mph - N/A   Clear
2:04 AM 35.6 °F 27.5 °F 23.0 °F 60% 29.68 in - ENE 11.5 mph - N/A   Clear
2:30 AM 35.6 °F 27.5 °F 23.0 °F 60% 29.71 in - ENE 11.5 mph - N/A   Clear
3:00 AM 33.8 °F 25.3 °F 23.0 °F 65% 29.68 in - ENE 11.5 mph - N/A   Clear
3:30 AM 33.8 °F 25.8 °F 23.0 °F 65% 29.68 in - ENE 10.4 mph - N/A   Clear
4:00 AM 32.0 °F 23.0 °F 23.0 °F 69% 29.68 in - NE 11.5 mph - N/A   Clear
4:30 AM 32.0 °F 23.0 °F 23.0 °F 69% 29.68 in - NE 11.5 mph - N/A   Clear
5:00 AM 32.0 °F 23.0 °F 23.0 °F 69% 29.68 in - NE 11.5 mph - N/A   Clear
5:30 AM 30.2 °F 20.8 °F 23.0 °F 75% 29.68 in - NE 11.5 mph - N/A   Clear
6:00 AM 30.2 °F 20.8 °F 23.0 °F 75% 29.68 in - NE 11.5 mph - N/A   Clear
6:30 AM 30.2 °F 20.8 °F 21.2 °F 69% 29.71 in - NE 11.5 mph - N/A   Clear
7:00 AM 30.2 °F 20.2 °F 21.2 °F 69% 29.71 in - NE 12.7 mph - N/A   Clear
7:30 AM 30.2 °F 20.8 °F 21.2 °F 69% 29.71 in - NE 11.5 mph - N/A   Clear
8:00 AM 30.2 °F 20.8 °F 21.2 °F 69% 29.71 in - NE 11.5 mph - N/A   Clear
8:30 AM 32.0 °F 22.1 °F 21.2 °F 64% 29.74 in - NE 13.8 mph 25.3 mph N/A   Clear
9:00 AM 33.8 °F 24.3 °F 21.2 °F 60% 29.74 in - NE 13.8 mph - N/A   Clear
9:30 AM 35.6 °F 26.2 °F 21.2 °F 56% 29.74 in - NE 15.0 mph - N/A   Clear
10:00 AM 37.4 °F 28.9 °F 21.2 °F 52% 29.74 in - ENE 13.8 mph - N/A   Clear
10:30 AM 39.2 °F 30.5 °F 21.2 °F 49% 29.74 in - ENE 16.1 mph - N/A   Clear
11:00 AM 39.2 °F 30.8 °F 21.2 °F 49% 29.74 in - ENE 15.0 mph - N/A   Clear
11:30 AM 41.0 °F 34.3 °F 21.2 °F 45% 29.74 in - ENE 11.5 mph - N/A   Clear
12:00 PM 42.8 °F 36.6 °F 23.0 °F 46% 29.77 in - NE 11.5 mph - N/A   Clear
12:30 PM 44.6 °F 38.1 °F 21.2 °F 39% 29.74 in - NE 13.8 mph - N/A   Clear
1:00 PM 44.6 °F 38.1 °F 21.2 °F 39% 29.74 in - NE 13.8 mph - N/A   Clear
1:30 PM 44.6 °F 38.1 °F 21.2 °F 39% 29.74 in - NE 13.8 mph - N/A   Clear
2:00 PM 46.4 °F 40.1 °F 23.0 °F 40% 29.74 in - NE 15.0 mph - N/A   Clear
2:30 PM 46.4 °F 40.1 °F 21.2 °F 37% 29.74 in - NE 15.0 mph - N/A   Clear
3:00 PM 48.2 °F - 21.2 °F 34% 29.74 in - NE 15.0 mph - N/A   Clear
3:30 PM 48.2 °F - 21.2 °F 34% 29.74 in - NNE 13.8 mph - N/A   Clear
4:00 PM 48.2 °F - 21.2 °F 34% 29.74 in - NE 15.0 mph - N/A   Clear
4:30 PM 48.2 °F - 21.2 °F 34% 29.77 in - NNE 15.0 mph - N/A   Clear
5:00 PM 48.2 °F - 21.2 °F 34% 29.77 in - NNE 13.8 mph 26.5 mph N/A   Clear
5:30 PM 48.2 °F - 21.2 °F 34% 29.77 in - NE 17.3 mph - N/A   Clear
6:00 PM 48.2 °F - 21.2 °F 34% 29.77 in - NNE 15.0 mph - N/A   Clear
6:30 PM 48.2 °F - 21.2 °F 34% 29.77 in - NNE 13.8 mph 29.9 mph N/A   Clear
7:00 PM 46.4 °F 40.1 °F 21.2 °F 37% 29.77 in - NNE 15.0 mph - N/A   Clear
7:30 PM 46.4 °F 40.4 °F 23.0 °F 40% 29.80 in - NNE 13.8 mph - N/A   Clear
8:00 PM 44.6 °F 38.1 °F 23.0 °F 43% 29.80 in - NNE 13.8 mph - N/A   Clear
8:30 PM 44.6 °F 39.2 °F 23.0 °F 43% 29.80 in - NNE 10.4 mph - N/A   Clear
9:00 PM 42.8 °F 37.5 °F 23.0 °F 46% 29.83 in - North 9.2 mph - N/A   Clear
9:30 PM 42.8 °F 36.6 °F 23.0 °F 46% 29.83 in - NNE 11.5 mph - N/A   Clear
10:00 PM 41.0 °F 34.3 °F 23.0 °F 49% 29.83 in - NNE 11.5 mph - N/A   Clear
10:30 PM 41.0 °F 34.7 °F 23.0 °F 49% 29.83 in - NNE 10.4 mph - N/A   Clear
11:00 PM 39.2 °F 32.5 °F 23.0 °F 52% 29.83 in - NNE 10.4 mph - N/A   Clear
11:30 PM 39.2 °F 33.0 °F 21.2 °F 49% 29.83 in - NNE 9.2 mph - N/A   Clear